Погода в Кагуле

Погода в Кагуле : погода сейчас, прогноз погоды и архив. Всё, что Вы хотите узнать о погоде в Кагуле!

Поиск расширенной информации на нашем сайте:

Другие новости

Новости СМИ2

Главная страница сайта

Новости сайта

03.07.2017

Напоминаем, что на нашем специализированном сайте Метеоцентр.Азия вы можете получить высокодетализированные автоматические прогнозы погоды по пунктам России, СНГ и мира в авиационном формате (включающие направление и скорость ветра, видимость, явления погоды, количество и форму облачности, нижнюю и верхнюю границу облачности).

Рекомендуем: п/э упаковка оптом спб

Погода в Кагуле - сегодня

Время (UTC), дата Ветер
(°,м/с) 
Видим.   Явления Облачность Т
(°С)
Тd
(°С)
f(%) Тe
(°С)
Pmin
(гПа)
dP
(гПа)
Po
(мм)
O2
(г/м3)
Тmin Tmax R s Состояние
почвы
21 22.02.18 030 (СВ) 4000 м  слаб. снег  10/0 средняя 
[As op]
-1.6 -1.9 98 -3  1022.2  0.3  756  307           
00 23.02.18 080 (В) 4000 м  дымка{снег}  10/0 средняя 
[Ac und]
-1.8 -2.1 98 -1  1022.2  -0.1  756  307           
06 23.02.18 010 (С) 4000 м  слаб. снег  10/10 300 м 
[Frnb|Ns]
-2.1 -2.4 98 -3  1022.1  0.6  756  307  -2.8       
09 23.02.18 340 (С) 2000 м  дымка{снег}  10/10 300 м 
[St]
-1.1 -1.5 97 -3  1022.6  0.6  756  306           
12 23.02.18 060 (СВ) 4000 м  дымка{снег}  10/10 600 м 
[Sc]
+0.2 -2.2 84 -2  1021.4  -1.1  755  304           
15 23.02.18 080 (В) 10 км    10/0 средняя 
[Ac und]
+0.2 -2 85 -1  1020.6  -0.8  755  304           
18 23.02.18 120 (ЮВ) 10 км    10/10 360 м 
[Sc]
-0.3 -1.9 89 -1  1020.6  -0.1  755  305    +0.7  0.0     
21 23.02.18 160 (Ю) 10 км    10/10 600 м 
[Sc]
-1 -2.6 89 -3  1019.5  -1.1  754  305           
00 24.02.18 140 (ЮВ) 10 км    10/10 600 м 
[Sc]
-1.2 -2.9 88 -1  1018.1  -1.4  753  305           
03 24.02.18 110 (В) 4000 м  дымка{снег}  10/10 300 м 
[Sc]
-1.7 -2.3 96 -1  1016.8  -1.3  752  305  -1.8         
06 24.02.18 тихо ()   2000 м  слаб. снег  10/10 300 м 
[Frnb|Ns]
-1.7 -2 98 -2  1016.8  752  305  -1.9    0.4     
09 24.02.18 350 (С) 4000 м  дымка{снег}  10/10 600 м 
[Sc]
-1.6 -2.3 95 -4  1016.2  -0.6  751  305           
12 24.02.18 350 (С) 4000 м  слаб. снег  10/10 300 м 
[Frnb|Ns]
-2.6 -3.6 93 -6  1015.7  -0.5  751  306           
15 24.02.18 360 (С) 4000 м  в посл. час ливневой снег  10/10 300 м кучево-дожд. 
[Cb cap]
-4 -4.8 94 -8  1016  0.2  751  308           
18 24.02.18 360 (С) 4000 м  дымка{ливн. осадки, снег}  10/10 600 м 
[Sc]
-4.9 -6 92 -9  1017.3  1.2  752  309    -1.2  0.8     
21 24.02.18 010 (С) 10 км    10/0 средняя 
[Ac As]
-5.4 -8 82 -9  1018.1  0.8  752  310           
00 25.02.18 360 (С) 10 км    10/0 средняя 
[As trans]
-7.4 -8.8 90 -11  1019.4  1.2  753  313           
03 25.02.18 360 (С) 10 км    10/10 600 м 
[Sc]
-9.7 -11 90 -14  1020.1  0.5  754  316  -10         
06 25.02.18 350 (С) 4000 м  дымка  10/10 600 м 
[Sc]
-9 -10.2 91 -12  1021.6  1.5  755  316  -10      равномерный
сухой снег
100% 
09 25.02.18 360 (С) 10 км    8/5 600 м средняя 
[Sc|Ac trans]
-6.6 -8.8 84 -11  1022  0.6  755  313           
12 25.02.18 010 (С) 10 км    8/8 1000 м 
[Sc]
-5.3 -8.5 78 -9  1022.1  0.1  755  311           
15 25.02.18 020 (С) 10 км    9/9 600 м 
[Sc]
-5.6 -8.7 79 -9  1022.8  0.7  756  312           
18 25.02.18 050 (СВ) 10 км    4/4 330 м средняя 
[As trans]
-8.4 -12.7 71 -12  1024.9  1.9  757  316    -5.1       
21 25.02.18 040 (СВ) 10 км    ясно 
-9.3 -13.6 71 -14  1025.8  0.9  758  317           
00 26.02.18 040 (СВ) 10 км    8/0 средняя 
[As trans]
-10.9 -14.1 77 -15  1026.8  0.9  759  320           
Время (UTC), дата Ветер
(°,м/с) 
Видим.   Явления Облачность Т
(°С)
Тd
(°С)
f(%) Тe
(°С)
Pmin
(гПа)
dP
(гПа)
Po
(мм)
O2
(г/м3)
Тmin Tmax R s Состояние
почвы

Для получения пояснительной информации подведите курсор к названию столбца.

ПОГОДА в Кагуле - архив

Всё, что Вы хотите узнать о погоде в Кагуле - удобно и подробно!

Выберите нужную дату (начиная с 1 января 2015* года) и нажмите кнопку "Найти".
Будут отображены архивные сводки погоды по пункту Кагул, начиная с указанной даты.


Отображать данные в формате CSV (для использования в таблицах Excel)


Внимание! Наш архив погоды предназначен исключительно для личного некоммерческого использования в познавательных целях. Если Вам необходимы официальные справки о состоянии погоды (для производственных, юридических, коммерческих и т.п. целей), обращайтесь в органы Росгидромета.

*Примечание: данная дата относится к архиву по метеостанциям СССР (Россия, СНГ, Балтия).
Архив по метеостанциям Зарубежной Европы и Азии (кроме Китая) хранится 10 дней, по другим регионам земного шара (Китай, Африка, Америка, Австралия, Океания) - 1 день.

Кагул - район местоположения метеостанции


Название, широта, долгота, высота метеостанции:
Кагул 45.9°ш. 28.2°д. 39 м над ур. моря [Украина]

Дополнительная информация

В oтличие oт бoльшинства пoгoдных сайтoв мы публикуем пoдрoбную метеoинфoрмацию в детальнoм прoфессиoнальнoм фoрмате.

Характеристики температуры и влажнoсти вoздуха измеряются на высoте 2 м в тени вдали oт зданий и деревьев.
Скoрoсть ветра измеряется на высoте 10 м (на урoвне рoста челoвека скoрoсть ветра ниже в 1.5-2 раза). Если метеoстанция нахoдится в гoрoде или в лесу, тo скoрoсть ветра занижена на 2-4 м/с пo сравнению с oткрытым местoм. Скoрoсть ветра над акватoриями крупных рек и oзёр, а также на вершинах хoлмoв на 2-5 м/с выше, чем в oбычных услoвиях.
Атмoсфернoе давление в разных тoчках местнoсти мoжет значительнo oтличаться oт давления на метеoстанции, в зависимoсти oт услoвий рельефа (при пoдъёме на 10 м давление пoнижается примернo на 1 мм рт.ст.).